DAL406 KATL-KBZN

Flight info

Callsign DAL406
Flight time 3h 46m
Altitude 30000
Route PENCL2 JAACE HITMN STL MCM LNK OBH TOOLS LOSST JOXIT
Aircraft B752/M-SDE2E3FGHIJ3J4J7RWXY/LB1

Departure

Time 2026-05-05 14:33
Airport Hartsfield Jackson Atlanta International Airport (KATL)

Arrival

Time 2026-05-05 18:19
Airport Bozeman Yellowstone International Airport (KBZN)
Time Latitude Longitude Altitude Speed Heading
2026-05-05 13:44 33.63761 -84.43530 1027 ft 0 kts 271°
2026-05-05 14:12 33.63761 -84.43523 1026 ft 2 kts 271°
2026-05-05 14:12 33.63761 -84.43504 1026 ft 2 kts 271°
2026-05-05 14:13 33.63760 -84.43482 1026 ft 3 kts 275°
2026-05-05 14:13 33.63753 -84.43454 1026 ft 3 kts 306°
2026-05-05 14:13 33.63738 -84.43440 1026 ft 2 kts 351°
2026-05-05 14:13 33.63725 -84.43443 1026 ft 1 kts 34°
2026-05-05 14:14 33.63718 -84.43445 1026 ft 1 kts
2026-05-05 14:14 33.63703 -84.43449 1026 ft 2 kts 17°
2026-05-05 14:14 33.63691 -84.43452 1026 ft 0 kts
2026-05-05 14:14 33.63688 -84.43452 1026 ft 0 kts
2026-05-05 14:19 33.63696 -84.43452 1026 ft 2 kts 359°
2026-05-05 14:20 33.63720 -84.43453 1026 ft 4 kts 358°
2026-05-05 14:20 33.63751 -84.43455 1026 ft 5 kts 358°
2026-05-05 14:20 33.63788 -84.43456 1026 ft 5 kts 358°
2026-05-05 14:20 33.63826 -84.43459 1026 ft 5 kts 358°
2026-05-05 14:21 33.63865 -84.43459 1026 ft 5 kts
2026-05-05 14:21 33.63904 -84.43459 1026 ft 5 kts
2026-05-05 14:21 33.63943 -84.43459 1026 ft 5 kts
2026-05-05 14:21 33.63983 -84.43459 1026 ft 5 kts
2026-05-05 14:22 33.64024 -84.43459 1026 ft 5 kts
2026-05-05 14:22 33.64064 -84.43459 1026 ft 5 kts
2026-05-05 14:22 33.64104 -84.43459 1026 ft 5 kts
2026-05-05 14:22 33.64144 -84.43459 1026 ft 5 kts
2026-05-05 14:23 33.64185 -84.43459 1026 ft 5 kts
2026-05-05 14:23 33.64225 -84.43459 1026 ft 5 kts
2026-05-05 14:23 33.64265 -84.43459 1026 ft 5 kts
2026-05-05 14:23 33.64306 -84.43459 1026 ft 5 kts
2026-05-05 14:24 33.64347 -84.43459 1026 ft 5 kts
2026-05-05 14:24 33.64388 -84.43460 1026 ft 5 kts
2026-05-05 14:24 33.64426 -84.43454 1026 ft 5 kts 23°
2026-05-05 14:24 33.64453 -84.43424 1026 ft 5 kts 64°
2026-05-05 14:25 33.64459 -84.43365 1026 ft 7 kts 88°
2026-05-05 14:25 33.64460 -84.43296 1026 ft 9 kts 90°
2026-05-05 14:25 33.64459 -84.43210 1026 ft 11 kts 91°
2026-05-05 14:25 33.64459 -84.43098 1026 ft 15 kts 90°
2026-05-05 14:26 33.64458 -84.42937 1026 ft 22 kts 90°
2026-05-05 14:26 33.64464 -84.42726 1026 ft 26 kts 84°
2026-05-05 14:26 33.64467 -84.42499 1021 ft 27 kts 90°
2026-05-05 14:26 33.64469 -84.42273 1016 ft 26 kts 79°
2026-05-05 14:27 33.64539 -84.42094 1016 ft 22 kts 82°
2026-05-05 14:27 33.64540 -84.41913 1013 ft 21 kts 90°
2026-05-05 14:27 33.64539 -84.41723 1012 ft 22 kts 91°
2026-05-05 14:27 33.64539 -84.41537 1015 ft 21 kts 89°
2026-05-05 14:28 33.64540 -84.41363 1019 ft 20 kts 90°
2026-05-05 14:28 33.64540 -84.41198 1022 ft 19 kts 91°
2026-05-05 14:28 33.64540 -84.41041 1024 ft 18 kts 90°
2026-05-05 14:28 33.64539 -84.40895 1028 ft 16 kts 90°
2026-05-05 14:29 33.64520 -84.40789 1034 ft 10 kts 115°
2026-05-05 14:29 33.64510 -84.40733 1036 ft 5 kts 90°
2026-05-05 14:29 33.64511 -84.40677 1038 ft 9 kts 89°
2026-05-05 14:29 33.64515 -84.40603 1041 ft 5 kts 71°
2026-05-05 14:30 33.64551 -84.40569 1041 ft 8 kts 12°
2026-05-05 14:30 33.64577 -84.40568 1041 ft 2 kts
2026-05-05 14:30 33.64600 -84.40568 1041 ft 4 kts 360°
2026-05-05 14:30 33.64632 -84.40569 1041 ft 4 kts 357°
2026-05-05 14:31 33.64656 -84.40576 1041 ft 2 kts 334°
2026-05-05 14:31 33.64674 -84.40594 1041 ft 6 kts 302°
2026-05-05 14:31 33.64679 -84.40634 1040 ft 0 kts 269°
2026-05-05 14:32 33.64679 -84.40640 1040 ft 3 kts 269°
2026-05-05 14:32 33.64677 -84.40855 1030 ft 57 kts 270°
2026-05-05 14:33 33.64678 -84.41612 1016 ft 121 kts 270°
2026-05-05 14:33 33.64674 -84.42852 1037 ft 174 kts 270°
2026-05-05 14:33 33.64693 -84.44398 1416 ft 196 kts 271°
2026-05-05 14:33 33.64718 -84.46101 2043 ft 215 kts 272°
2026-05-05 14:34 33.65067 -84.47869 2612 ft 222 kts 291°
2026-05-05 14:34 33.65789 -84.49511 3220 ft 223 kts 296°
2026-05-05 14:34 33.66505 -84.51148 3805 ft 223 kts 293°
2026-05-05 14:34 33.67191 -84.52821 4397 ft 223 kts 292°
2026-05-05 14:35 33.67876 -84.54548 4747 ft 238 kts 292°
2026-05-05 14:35 33.68653 -84.56383 5072 ft 256 kts 304°
2026-05-05 14:35 33.70026 -84.57831 5406 ft 279 kts 332°
2026-05-05 14:35 33.71937 -84.58359 6004 ft 287 kts
2026-05-05 14:36 33.73946 -84.58245 6674 ft 291 kts
2026-05-05 14:36 33.75959 -84.58180 7396 ft 292 kts 360°
2026-05-05 14:36 33.78014 -84.58133 8100 ft 294 kts 359°
2026-05-05 14:36 33.80067 -84.58097 8808 ft 296 kts 359°
2026-05-05 14:37 33.82116 -84.58086 9454 ft 299 kts 358°
2026-05-05 14:37 33.84213 -84.58135 10167 ft 299 kts 351°
2026-05-05 14:37 33.86256 -84.58640 10524 ft 311 kts 342°
2026-05-05 14:37 33.88432 -84.59342 10753 ft 330 kts 343°
2026-05-05 14:38 33.90717 -84.60068 11026 ft 348 kts 343°
2026-05-05 14:38 33.93119 -84.60838 11244 ft 367 kts 343°
2026-05-05 14:38 33.95626 -84.61643 11697 ft 376 kts 343°
2026-05-05 14:38 33.98173 -84.62460 12456 ft 377 kts 343°
2026-05-05 14:39 34.00700 -84.63276 13047 ft 380 kts 343°
2026-05-05 14:39 34.03245 -84.64096 13700 ft 381 kts 343°
2026-05-05 14:39 34.05818 -84.64928 14261 ft 384 kts 342°
2026-05-05 14:39 34.08428 -84.65773 14855 ft 386 kts 342°
2026-05-05 14:40 34.10988 -84.66602 15397 ft 388 kts 342°
2026-05-05 14:40 34.13596 -84.67447 15930 ft 391 kts 342°
2026-05-05 14:40 34.16235 -84.68303 16419 ft 394 kts 342°
2026-05-05 14:40 34.18882 -84.69160 16965 ft 395 kts 342°
2026-05-05 14:41 34.21540 -84.70024 17467 ft 397 kts 341°
2026-05-05 14:41 34.24226 -84.70898 17909 ft 400 kts 341°
2026-05-05 14:41 34.26920 -84.71819 18385 ft 400 kts 338°
2026-05-05 14:41 34.29527 -84.72967 18806 ft 402 kts 336°
2026-05-05 14:42 34.32173 -84.74101 19249 ft 404 kts 337°
2026-05-05 14:42 34.34844 -84.75238 19766 ft 404 kts 337°
2026-05-05 14:42 34.37510 -84.76370 20173 ft 407 kts 337°
2026-05-05 14:42 34.40180 -84.77502 20635 ft 408 kts 337°
2026-05-05 14:43 34.42891 -84.78653 20962 ft 412 kts 337°
2026-05-05 14:43 34.45594 -84.79799 21502 ft 411 kts 337°
2026-05-05 14:43 34.48273 -84.80936 21912 ft 414 kts 337°
2026-05-05 14:43 34.50991 -84.82089 22342 ft 414 kts 337°
2026-05-05 14:44 34.53735 -84.83254 22724 ft 417 kts 337°
2026-05-05 14:44 34.56487 -84.84425 23109 ft 419 kts 336°
2026-05-05 14:44 34.59261 -84.85603 23582 ft 420 kts 336°
2026-05-05 14:44 34.61990 -84.86764 23935 ft 423 kts 336°
2026-05-05 14:45 34.64793 -84.87958 24496 ft 421 kts 336°
2026-05-05 14:45 34.67548 -84.89131 24852 ft 423 kts 336°
2026-05-05 14:45 34.70319 -84.90313 25299 ft 423 kts 336°
2026-05-05 14:45 34.73096 -84.91497 25654 ft 426 kts 336°
2026-05-05 14:46 34.75898 -84.92694 26132 ft 425 kts 336°
2026-05-05 14:46 34.78696 -84.93890 26461 ft 427 kts 335°
2026-05-05 14:46 34.81490 -84.95085 26790 ft 429 kts 335°
2026-05-05 14:46 34.84317 -84.96294 27145 ft 430 kts 335°
2026-05-05 14:47 34.87152 -84.97508 27487 ft 431 kts 335°
2026-05-05 14:47 34.89956 -84.98711 27924 ft 429 kts 335°
2026-05-05 14:47 34.92797 -84.99929 28102 ft 434 kts 335°
2026-05-05 14:47 34.95636 -85.01146 28651 ft 430 kts 335°
2026-05-05 14:48 34.98489 -85.02372 28771 ft 436 kts 335°
2026-05-05 14:48 35.01304 -85.03581 29238 ft 433 kts 335°
2026-05-05 14:48 35.04165 -85.04811 29746 ft 430 kts 335°
2026-05-05 14:48 35.06949 -85.06019 29960 ft 429 kts 333°
2026-05-05 14:49 35.11994 -85.09687 29969 ft 414 kts 314°
2026-05-05 14:49 35.15776 -85.14862 29951 ft 412 kts 308°
2026-05-05 14:50 35.19413 -85.20286 29952 ft 411 kts 307°
2026-05-05 14:50 35.23015 -85.25763 29954 ft 409 kts 307°
2026-05-05 14:51 35.26551 -85.31187 29937 ft 409 kts 307°
2026-05-05 14:51 35.30107 -85.36669 29945 ft 411 kts 306°
2026-05-05 14:52 35.33630 -85.42123 29937 ft 407 kts 306°
2026-05-05 14:52 35.37150 -85.47580 29935 ft 410 kts 306°
2026-05-05 14:53 35.40684 -85.53074 29939 ft 410 kts 306°
2026-05-05 14:53 35.44195 -85.58538 29936 ft 409 kts 306°
2026-05-05 14:54 35.47722 -85.64037 29934 ft 410 kts 306°
2026-05-05 14:54 35.51225 -85.69510 29933 ft 410 kts 306°
2026-05-05 14:55 35.54750 -85.75023 29926 ft 409 kts 306°
2026-05-05 14:55 35.58258 -85.80513 29937 ft 409 kts 305°
2026-05-05 14:56 35.61769 -85.86019 29918 ft 410 kts 305°
2026-05-05 14:56 35.65285 -85.91538 29920 ft 407 kts 306°
2026-05-05 14:57 35.68765 -85.97011 29929 ft 408 kts 305°
2026-05-05 14:57 35.72251 -86.02505 29925 ft 410 kts 305°
2026-05-05 14:58 35.75745 -86.08015 29920 ft 407 kts 305°
2026-05-05 14:58 35.79230 -86.13525 29911 ft 408 kts 304°
2026-05-05 14:59 35.82720 -86.19048 29911 ft 409 kts 305°
2026-05-05 14:59 35.86186 -86.24544 29903 ft 410 kts 305°
2026-05-05 15:00 35.89131 -86.29221 29908 ft 411 kts 305°
2026-05-05 15:00 35.93183 -86.35661 29901 ft 410 kts 305°
2026-05-05 15:01 35.96679 -86.41232 29899 ft 410 kts 305°
2026-05-05 15:01 36.00177 -86.46815 29899 ft 410 kts 305°
2026-05-05 15:02 36.03664 -86.52388 29895 ft 411 kts 305°
2026-05-05 15:02 36.07158 -86.57981 29895 ft 412 kts 304°
2026-05-05 15:03 36.10644 -86.63570 29899 ft 410 kts 304°
2026-05-05 15:03 36.14167 -86.69074 29909 ft 410 kts 309°
2026-05-05 15:04 36.18087 -86.74241 29906 ft 415 kts 309°
2026-05-05 15:04 36.22051 -86.79475 29900 ft 412 kts 309°
2026-05-05 15:05 36.27909 -86.87225 29900 ft 412 kts 308°
2026-05-05 15:06 36.31829 -86.92416 29903 ft 414 kts 308°
2026-05-05 15:06 36.35772 -86.97649 29887 ft 413 kts 309°
2026-05-05 15:07 36.39701 -87.02866 29895 ft 413 kts 308°
2026-05-05 15:07 36.43638 -87.08106 29876 ft 415 kts 308°
2026-05-05 15:08 36.47544 -87.13309 29874 ft 414 kts 308°
2026-05-05 15:08 36.51469 -87.18550 29872 ft 413 kts 308°
2026-05-05 15:09 36.55402 -87.23811 29871 ft 416 kts 308°
2026-05-05 15:09 36.59349 -87.29094 29860 ft 416 kts 308°
2026-05-05 15:10 36.63297 -87.34390 29860 ft 417 kts 307°
2026-05-05 15:10 36.67236 -87.39682 29863 ft 418 kts 308°
2026-05-05 15:11 36.71172 -87.44979 29865 ft 418 kts 308°
2026-05-05 15:11 36.75123 -87.50305 29844 ft 421 kts 307°
2026-05-05 15:12 36.79083 -87.55650 29839 ft 419 kts 307°
2026-05-05 15:12 36.83028 -87.60987 29824 ft 419 kts 307°
2026-05-05 15:13 36.86976 -87.66335 29831 ft 419 kts 307°
2026-05-05 15:13 36.90953 -87.71732 29836 ft 422 kts 306°
2026-05-05 15:14 36.94922 -87.77123 29827 ft 421 kts 307°
2026-05-05 15:14 36.98864 -87.82491 29821 ft 424 kts 306°
2026-05-05 15:15 37.02849 -87.87925 29819 ft 423 kts 306°
2026-05-05 15:15 37.06824 -87.93353 29814 ft 425 kts 306°
2026-05-05 15:16 37.10811 -87.98811 29815 ft 425 kts 306°
2026-05-05 15:16 37.14763 -88.04224 29800 ft 422 kts 306°
2026-05-05 15:17 37.18713 -88.09647 29799 ft 423 kts 306°
2026-05-05 15:17 37.22668 -88.15086 29791 ft 421 kts 306°
2026-05-05 15:18 37.26631 -88.20543 29794 ft 422 kts 306°
2026-05-05 15:18 37.30568 -88.25975 29789 ft 422 kts 306°
2026-05-05 15:19 37.34514 -88.31430 29790 ft 422 kts 307°
2026-05-05 15:19 37.38414 -88.36826 29788 ft 419 kts 307°
2026-05-05 15:20 37.42344 -88.42277 29777 ft 422 kts 307°
2026-05-05 15:20 37.46262 -88.47717 29780 ft 419 kts 307°
2026-05-05 15:21 37.50178 -88.53165 29778 ft 420 kts 306°
2026-05-05 15:21 37.54095 -88.58626 29778 ft 420 kts 307°
2026-05-05 15:22 37.57999 -88.64075 29778 ft 419 kts 307°
2026-05-05 15:22 37.61816 -88.69414 29798 ft 418 kts 306°
2026-05-05 15:23 37.65718 -88.74879 29792 ft 420 kts 306°
2026-05-05 15:23 37.69601 -88.80325 29788 ft 417 kts 307°
2026-05-05 15:24 37.73473 -88.85768 29781 ft 419 kts 307°
2026-05-05 15:24 37.77367 -88.91250 29776 ft 417 kts 307°
2026-05-05 15:25 37.81258 -88.96737 29770 ft 419 kts 307°
2026-05-05 15:25 37.85111 -89.02178 29776 ft 417 kts 307°
2026-05-05 15:26 37.88979 -89.07652 29768 ft 417 kts 307°
2026-05-05 15:26 37.92860 -89.13152 29766 ft 416 kts 307°
2026-05-05 15:27 37.96685 -89.18585 29767 ft 418 kts 307°
2026-05-05 15:27 38.00558 -89.24092 29759 ft 417 kts 307°
2026-05-05 15:28 38.04403 -89.29571 29745 ft 416 kts 307°
2026-05-05 15:28 38.08221 -89.35018 29755 ft 414 kts 307°
2026-05-05 15:29 38.12020 -89.40449 29745 ft 413 kts 307°
2026-05-05 15:29 38.15844 -89.45927 29750 ft 414 kts 307°
2026-05-05 15:30 38.19660 -89.51397 29754 ft 413 kts 307°
2026-05-05 15:30 38.23463 -89.56864 29751 ft 411 kts 307°
2026-05-05 15:31 38.27246 -89.62309 29755 ft 411 kts 307°
2026-05-05 15:31 38.31043 -89.67786 29773 ft 412 kts 306°
2026-05-05 15:32 38.34810 -89.73225 29779 ft 411 kts 306°
2026-05-05 15:32 38.38610 -89.78724 29775 ft 413 kts 306°
2026-05-05 15:33 38.42357 -89.84152 29774 ft 409 kts 306°
2026-05-05 15:33 38.46132 -89.89635 29779 ft 410 kts 306°
2026-05-05 15:34 38.49886 -89.95092 29785 ft 408 kts 306°
2026-05-05 15:34 38.53627 -90.00542 29792 ft 409 kts 306°
2026-05-05 15:35 38.57394 -90.06041 29798 ft 410 kts 306°
2026-05-05 15:35 38.61129 -90.11499 29793 ft 410 kts 306°
2026-05-05 15:36 38.64882 -90.16995 29790 ft 409 kts 306°
2026-05-05 15:36 38.68632 -90.22498 29802 ft 410 kts 306°
2026-05-05 15:37 38.72382 -90.28005 29802 ft 410 kts 306°
2026-05-05 15:37 38.76128 -90.33520 29806 ft 414 kts 305°
2026-05-05 15:38 38.79912 -90.39099 29797 ft 412 kts 306°
2026-05-05 15:38 38.83667 -90.44646 29802 ft 413 kts 305°
2026-05-05 15:39 38.86922 -90.50626 29809 ft 405 kts 295°
2026-05-05 15:39 38.89597 -90.56986 29796 ft 407 kts 294°
2026-05-05 15:40 38.92254 -90.63401 29796 ft 409 kts 294°
2026-05-05 15:40 38.94901 -90.69855 29811 ft 410 kts 293°
2026-05-05 15:41 38.97548 -90.76346 29829 ft 408 kts 293°
2026-05-05 15:41 39.00182 -90.82832 29810 ft 409 kts 293°
2026-05-05 15:42 39.02810 -90.89317 29812 ft 409 kts 293°
2026-05-05 15:42 39.05429 -90.95798 29809 ft 411 kts 293°
2026-05-05 15:43 39.08067 -91.02341 29807 ft 412 kts 293°
2026-05-05 15:43 39.10686 -91.08853 29812 ft 410 kts 293°
2026-05-05 15:44 39.13318 -91.15411 29822 ft 411 kts 293°
2026-05-05 15:44 39.15938 -91.21951 29826 ft 411 kts 293°
2026-05-05 15:45 39.18549 -91.28481 29828 ft 410 kts 293°
2026-05-05 15:45 39.21150 -91.35007 29826 ft 410 kts 293°
2026-05-05 15:46 39.23765 -91.41576 29826 ft 411 kts 293°
2026-05-05 15:46 39.26349 -91.48083 29818 ft 409 kts 293°
2026-05-05 15:47 39.28947 -91.54639 29830 ft 410 kts 293°
2026-05-05 15:47 39.31520 -91.61147 29840 ft 408 kts 293°
2026-05-05 15:48 39.34092 -91.67664 29855 ft 407 kts 292°
2026-05-05 15:48 39.36588 -91.74007 29853 ft 408 kts 292°
2026-05-05 15:49 39.39140 -91.80499 29848 ft 407 kts 292°
2026-05-05 15:49 39.41704 -91.87041 29847 ft 408 kts 292°
2026-05-05 15:50 39.44254 -91.93561 29855 ft 406 kts 292°
2026-05-05 15:50 39.46801 -92.00085 29857 ft 408 kts 292°
2026-05-05 15:51 39.49349 -92.06625 29849 ft 406 kts 292°
2026-05-05 15:51 39.51895 -92.13178 29849 ft 408 kts 292°
2026-05-05 15:52 39.54439 -92.19735 29849 ft 406 kts 292°
2026-05-05 15:52 39.56953 -92.26234 29855 ft 407 kts 292°
2026-05-05 15:53 39.59488 -92.32797 29851 ft 407 kts 292°
2026-05-05 15:53 39.62011 -92.39347 29860 ft 406 kts 291°
2026-05-05 15:54 39.64519 -92.45872 29855 ft 407 kts 292°
2026-05-05 15:54 39.66809 -92.52580 29857 ft 404 kts 289°
2026-05-05 15:55 39.68967 -92.59270 29841 ft 405 kts 289°
2026-05-05 15:55 39.71130 -92.66010 29849 ft 404 kts 288°
2026-05-05 15:56 39.73279 -92.72721 29859 ft 404 kts 288°
2026-05-05 15:56 39.75443 -92.79504 29857 ft 405 kts 288°
2026-05-05 15:57 39.77593 -92.86260 29859 ft 403 kts 288°
2026-05-05 15:57 39.79728 -92.92985 29857 ft 404 kts 288°
2026-05-05 15:58 39.81868 -92.99738 29869 ft 404 kts 288°
2026-05-05 15:58 39.84005 -93.06503 29875 ft 403 kts 288°
2026-05-05 15:59 39.86126 -93.13240 29882 ft 406 kts 288°
2026-05-05 15:59 39.88260 -93.20023 29880 ft 405 kts 288°
2026-05-05 16:00 39.90383 -93.26791 29876 ft 405 kts 288°
2026-05-05 16:00 39.92497 -93.33552 29872 ft 403 kts 288°
2026-05-05 16:01 39.94610 -93.40322 29878 ft 404 kts 288°
2026-05-05 16:01 39.96727 -93.47123 29874 ft 407 kts 288°
2026-05-05 16:02 39.98840 -93.53928 29874 ft 403 kts 288°
2026-05-05 16:02 40.00935 -93.60696 29871 ft 403 kts 288°
2026-05-05 16:03 40.03023 -93.67455 29891 ft 405 kts 287°
2026-05-05 16:03 40.05124 -93.74272 29884 ft 402 kts 287°
2026-05-05 16:04 40.07196 -93.81014 29889 ft 402 kts 287°
2026-05-05 16:04 40.09286 -93.87826 29891 ft 403 kts 288°
2026-05-05 16:05 40.11354 -93.94590 29884 ft 401 kts 287°
2026-05-05 16:05 40.13425 -94.01374 29881 ft 401 kts 288°
2026-05-05 16:06 40.15470 -94.08099 29896 ft 401 kts 287°
2026-05-05 16:06 40.17536 -94.14909 29885 ft 402 kts 287°
2026-05-05 16:07 40.19599 -94.21716 29877 ft 403 kts 287°
2026-05-05 16:07 40.21652 -94.28518 29880 ft 402 kts 287°
2026-05-05 16:08 40.23705 -94.35328 29879 ft 404 kts 287°
2026-05-05 16:08 40.25759 -94.42165 29874 ft 403 kts 287°
2026-05-05 16:09 40.27797 -94.48964 29859 ft 404 kts 287°
2026-05-05 16:09 40.29851 -94.55836 29856 ft 404 kts 287°
2026-05-05 16:10 40.31893 -94.62684 29865 ft 405 kts 287°
2026-05-05 16:10 40.33932 -94.69540 29875 ft 405 kts 286°
2026-05-05 16:11 40.35955 -94.76359 29888 ft 402 kts 286°
2026-05-05 16:12 40.40025 -94.90133 29902 ft 404 kts 286°
2026-05-05 16:13 40.45072 -95.07313 29886 ft 403 kts 286°
2026-05-05 16:13 40.47084 -95.14198 29876 ft 403 kts 287°
2026-05-05 16:14 40.51085 -95.27930 29885 ft 402 kts 286°
2026-05-05 16:15 40.55059 -95.41653 29885 ft 402 kts 286°
2026-05-05 16:16 40.59015 -95.55377 29885 ft 401 kts 286°
2026-05-05 16:17 40.61978 -95.65712 29889 ft 403 kts 286°
2026-05-05 16:18 40.64913 -95.75981 29900 ft 401 kts 285°
2026-05-05 16:19 40.67858 -95.86327 29910 ft 401 kts 285°
2026-05-05 16:19 40.70783 -95.96646 29908 ft 401 kts 285°
2026-05-05 16:20 40.74677 -96.10455 29898 ft 401 kts 286°
2026-05-05 16:22 40.79519 -96.27721 29886 ft 401 kts 286°
2026-05-05 16:23 40.83352 -96.41475 29894 ft 401 kts 285°
2026-05-05 16:23 40.86214 -96.51795 29886 ft 400 kts 286°
2026-05-05 16:24 40.88116 -96.58671 29889 ft 400 kts 285°
2026-05-05 16:25 40.90967 -96.69019 29914 ft 399 kts 285°
2026-05-05 16:25 40.93830 -96.79185 29910 ft 400 kts 286°
2026-05-05 16:26 40.97774 -96.92875 29909 ft 400 kts 286°
2026-05-05 16:27 40.99744 -96.99738 29899 ft 399 kts 286°
2026-05-05 16:27 41.01709 -97.06607 29895 ft 399 kts 286°
2026-05-05 16:28 41.03672 -97.13493 29886 ft 401 kts 286°
2026-05-05 16:28 41.05626 -97.20350 29895 ft 400 kts 286°
2026-05-05 16:29 41.07585 -97.27254 29887 ft 401 kts 285°
2026-05-05 16:29 41.09544 -97.34176 29887 ft 400 kts 286°
2026-05-05 16:30 41.11492 -97.41073 29901 ft 400 kts 285°
2026-05-05 16:30 41.13428 -97.47948 29891 ft 400 kts 285°
2026-05-05 16:31 41.15382 -97.54906 29882 ft 400 kts 285°
2026-05-05 16:31 41.17313 -97.61805 29888 ft 401 kts 285°
2026-05-05 16:32 41.19242 -97.68714 29923 ft 402 kts 285°
2026-05-05 16:32 41.21176 -97.75664 29917 ft 402 kts 285°
2026-05-05 16:33 41.23112 -97.82632 29936 ft 403 kts 285°
2026-05-05 16:33 41.25037 -97.89583 29920 ft 402 kts 285°
2026-05-05 16:34 41.26965 -97.96563 29917 ft 403 kts 285°
2026-05-05 16:34 41.28885 -98.03532 29928 ft 403 kts 285°
2026-05-05 16:35 41.30803 -98.10513 29930 ft 405 kts 285°
2026-05-05 16:35 41.32733 -98.17564 29911 ft 405 kts 285°
2026-05-05 16:36 41.34658 -98.24609 29909 ft 405 kts 285°
2026-05-05 16:36 41.36573 -98.31644 29917 ft 406 kts 285°
2026-05-05 16:37 41.38784 -98.38554 29929 ft 411 kts 291°
2026-05-05 16:37 41.41317 -98.45348 29903 ft 411 kts 290°
2026-05-05 16:38 41.43840 -98.52132 29912 ft 411 kts 290°
2026-05-05 16:38 41.46385 -98.58988 29911 ft 412 kts 291°
2026-05-05 16:39 41.48909 -98.65805 29911 ft 412 kts 290°
2026-05-05 16:39 41.51434 -98.72641 29927 ft 413 kts 290°
2026-05-05 16:40 41.53977 -98.79535 29949 ft 413 kts 290°
2026-05-05 16:40 41.56493 -98.86378 29931 ft 412 kts 290°
2026-05-05 16:41 41.59000 -98.93211 29943 ft 412 kts 290°
2026-05-05 16:41 41.61527 -99.00120 29942 ft 414 kts 290°
2026-05-05 16:42 41.64059 -99.07051 29938 ft 413 kts 290°
2026-05-05 16:42 41.66562 -99.13924 29933 ft 415 kts 290°
2026-05-05 16:43 41.69089 -99.20880 29920 ft 416 kts 290°
2026-05-05 16:43 41.71624 -99.27877 29935 ft 416 kts 290°
2026-05-05 16:44 41.74123 -99.34785 29924 ft 416 kts 290°
2026-05-05 16:44 41.76642 -99.41771 29937 ft 415 kts 290°
2026-05-05 16:45 41.79151 -99.48747 29926 ft 416 kts 290°
2026-05-05 16:45 41.81667 -99.55755 29920 ft 416 kts 290°
2026-05-05 16:46 41.84164 -99.62732 29914 ft 416 kts 291°
2026-05-05 16:46 41.86666 -99.69737 29941 ft 416 kts 289°
2026-05-05 16:47 41.89128 -99.76646 29931 ft 416 kts 290°
2026-05-05 16:47 41.91615 -99.83647 29927 ft 416 kts 290°
2026-05-05 16:48 41.94082 -99.90606 29929 ft 415 kts 290°
2026-05-05 16:48 41.96571 -99.97646 29927 ft 416 kts 290°
2026-05-05 16:49 41.99024 -100.04600 29930 ft 415 kts 290°
2026-05-05 16:49 42.01489 -100.11605 29928 ft 417 kts 290°
2026-05-05 16:50 42.03966 -100.18665 29923 ft 417 kts 290°
2026-05-05 16:50 42.06430 -100.25700 29920 ft 416 kts 290°
2026-05-05 16:51 42.08894 -100.32758 29924 ft 417 kts 290°
2026-05-05 16:51 42.11357 -100.39829 29921 ft 416 kts 290°
2026-05-05 16:52 42.13759 -100.46742 29915 ft 414 kts 290°
2026-05-05 16:52 42.16196 -100.53780 29922 ft 417 kts 290°
2026-05-05 16:53 42.18630 -100.60816 29914 ft 414 kts 290°
2026-05-05 16:53 42.21055 -100.67850 29926 ft 416 kts 289°
2026-05-05 16:54 42.23489 -100.74923 29923 ft 413 kts 289°
2026-05-05 16:54 42.25910 -100.81985 29919 ft 415 kts 289°
2026-05-05 16:55 42.28311 -100.89002 29918 ft 413 kts 289°
2026-05-05 16:55 42.30705 -100.96017 29918 ft 415 kts 290°
2026-05-05 16:56 42.33128 -101.03131 29913 ft 415 kts 289°
2026-05-05 16:56 42.35520 -101.10177 29914 ft 413 kts 289°
2026-05-05 16:57 42.37922 -101.17273 29914 ft 415 kts 289°
2026-05-05 16:57 42.40308 -101.24334 29914 ft 414 kts 289°
2026-05-05 16:58 42.42689 -101.31402 29911 ft 414 kts 289°
2026-05-05 16:58 42.45059 -101.38450 29908 ft 414 kts 289°
2026-05-05 16:59 42.47431 -101.45527 29904 ft 411 kts 289°
2026-05-05 16:59 42.49797 -101.52607 29904 ft 414 kts 289°
2026-05-05 17:00 42.52156 -101.59680 29903 ft 412 kts 289°
2026-05-05 17:00 42.54506 -101.66745 29918 ft 413 kts 288°
2026-05-05 17:01 42.56825 -101.73734 29925 ft 412 kts 288°
2026-05-05 17:01 42.59143 -101.80730 29921 ft 397 kts 288°
2026-05-05 17:02 42.61376 -101.87505 29925 ft 399 kts 288°
2026-05-05 17:02 42.63651 -101.94422 29925 ft 402 kts 288°
2026-05-05 17:03 42.65912 -102.01305 29930 ft 398 kts 288°
2026-05-05 17:03 42.68149 -102.08134 29933 ft 397 kts 288°
2026-05-05 17:04 42.70398 -102.15019 29938 ft 398 kts 288°
2026-05-05 17:04 42.72634 -102.21883 29936 ft 400 kts 288°
2026-05-05 17:05 42.74856 -102.28715 29931 ft 396 kts 288°
2026-05-05 17:05 42.77082 -102.35586 29924 ft 397 kts 288°
2026-05-05 17:06 42.79305 -102.42461 29924 ft 399 kts 288°
2026-05-05 17:06 42.81537 -102.49378 29919 ft 396 kts 288°
2026-05-05 17:07 42.83748 -102.56254 29917 ft 397 kts 288°
2026-05-05 17:07 42.85949 -102.63109 29919 ft 397 kts 288°
2026-05-05 17:08 42.88149 -102.69985 29932 ft 395 kts 288°
2026-05-05 17:08 42.90340 -102.76846 29928 ft 397 kts 287°
2026-05-05 17:09 42.92546 -102.83775 29931 ft 397 kts 288°
2026-05-05 17:09 42.94727 -102.90641 29934 ft 395 kts 287°
2026-05-05 17:10 42.96897 -102.97491 29933 ft 394 kts 287°
2026-05-05 17:10 42.99066 -103.04361 29933 ft 395 kts 288°
2026-05-05 17:11 43.01242 -103.11262 29934 ft 393 kts 288°
2026-05-05 17:11 43.03384 -103.18079 29938 ft 395 kts 288°
2026-05-05 17:12 43.05550 -103.24987 29921 ft 393 kts 288°
2026-05-05 17:12 43.07697 -103.31853 29929 ft 394 kts 288°
2026-05-05 17:13 43.09845 -103.38747 29932 ft 397 kts 287°
2026-05-05 17:13 43.11994 -103.45651 29925 ft 394 kts 287°
2026-05-05 17:14 43.14109 -103.52470 29925 ft 394 kts 288°
2026-05-05 17:14 43.16244 -103.59374 29942 ft 394 kts 288°
2026-05-05 17:15 43.18378 -103.66290 29940 ft 396 kts 287°
2026-05-05 17:15 43.20510 -103.73213 29949 ft 393 kts 287°
2026-05-05 17:16 43.22631 -103.80125 29950 ft 395 kts 287°
2026-05-05 17:16 43.24751 -103.87049 29950 ft 396 kts 287°
2026-05-05 17:17 43.26874 -103.94004 29954 ft 397 kts 287°
2026-05-05 17:17 43.28999 -104.00981 29952 ft 395 kts 287°
2026-05-05 17:18 43.31111 -104.07938 29951 ft 398 kts 287°
2026-05-05 17:18 43.33224 -104.14912 29950 ft 396 kts 287°
2026-05-05 17:19 43.35342 -104.21926 29949 ft 399 kts 287°
2026-05-05 17:19 43.37446 -104.28909 29945 ft 395 kts 287°
2026-05-05 17:20 43.39554 -104.35928 29945 ft 399 kts 287°
2026-05-05 17:20 43.41650 -104.42925 29944 ft 395 kts 287°
2026-05-05 17:21 43.43728 -104.49881 29942 ft 397 kts 287°
2026-05-05 17:22 43.46883 -104.60473 29939 ft 398 kts 288°
2026-05-05 17:22 43.48958 -104.67469 29946 ft 397 kts 287°
2026-05-05 17:23 43.51055 -104.74554 29942 ft 399 kts 287°
2026-05-05 17:23 43.53141 -104.81625 29939 ft 400 kts 287°
2026-05-05 17:24 43.55214 -104.88671 29939 ft 398 kts 287°
2026-05-05 17:24 43.57297 -104.95766 29940 ft 400 kts 287°
2026-05-05 17:25 43.59376 -105.02875 29938 ft 403 kts 287°
2026-05-05 17:25 43.61454 -105.10000 29934 ft 402 kts 287°
2026-05-05 17:26 43.63544 -105.17177 29932 ft 402 kts 287°
2026-05-05 17:26 43.65616 -105.24318 29927 ft 403 kts 287°
2026-05-05 17:27 43.67686 -105.31472 29923 ft 402 kts 288°
2026-05-05 17:27 43.69767 -105.38688 29938 ft 405 kts 288°
2026-05-05 17:28 43.71832 -105.45862 29932 ft 401 kts 288°
2026-05-05 17:28 43.73885 -105.53024 29930 ft 402 kts 288°
2026-05-05 17:29 43.75946 -105.60228 29928 ft 402 kts 288°
2026-05-05 17:29 43.77998 -105.67422 29946 ft 403 kts 287°
2026-05-05 17:30 43.80039 -105.74601 29940 ft 405 kts 287°
2026-05-05 17:30 43.82103 -105.81878 29941 ft 403 kts 288°
2026-05-05 17:31 43.84140 -105.89087 29943 ft 406 kts 288°
2026-05-05 17:31 43.86200 -105.96394 29940 ft 406 kts 288°
2026-05-05 17:32 43.88235 -106.03629 29948 ft 406 kts 288°
2026-05-05 17:32 43.90278 -106.10922 29957 ft 406 kts 288°
2026-05-05 17:33 43.92312 -106.18201 29978 ft 409 kts 288°
2026-05-05 17:33 43.94362 -106.25555 29966 ft 407 kts 288°
2026-05-05 17:34 43.96378 -106.32817 29992 ft 406 kts 288°
2026-05-05 17:34 43.98416 -106.40174 29972 ft 407 kts 288°
2026-05-05 17:35 44.00433 -106.47484 29982 ft 407 kts 289°
2026-05-05 17:35 44.02440 -106.54770 29982 ft 406 kts 289°
2026-05-05 17:36 44.04454 -106.62112 29981 ft 408 kts 289°
2026-05-05 17:36 44.06472 -106.69487 29984 ft 408 kts 289°
2026-05-05 17:37 44.08471 -106.76814 29982 ft 407 kts 289°
2026-05-05 17:37 44.10473 -106.84173 29959 ft 409 kts 289°
2026-05-05 17:38 44.12486 -106.91592 29931 ft 408 kts 289°
2026-05-05 17:38 44.14482 -106.98984 29900 ft 410 kts 289°
2026-05-05 17:39 44.16444 -107.06259 29873 ft 409 kts 289°
2026-05-05 17:39 44.18440 -107.13694 29862 ft 413 kts 290°
2026-05-05 17:40 44.20437 -107.21146 29853 ft 410 kts 290°
2026-05-05 17:40 44.22437 -107.28635 29871 ft 413 kts 290°
2026-05-05 17:41 44.24422 -107.36095 29878 ft 411 kts 290°
2026-05-05 17:41 44.26413 -107.43596 29922 ft 415 kts 291°
2026-05-05 17:42 44.28396 -107.51092 29949 ft 411 kts 291°
2026-05-05 17:42 44.30378 -107.58611 29935 ft 416 kts 291°
2026-05-05 17:43 44.32373 -107.66198 29974 ft 418 kts 290°
2026-05-05 17:43 44.34374 -107.73835 29976 ft 417 kts 291°
2026-05-05 17:44 44.36348 -107.81393 29998 ft 419 kts 291°
2026-05-05 17:44 44.38335 -107.89027 29974 ft 418 kts 291°
2026-05-05 17:45 44.40320 -107.96676 29977 ft 420 kts 291°
2026-05-05 17:45 44.42308 -108.04361 29996 ft 421 kts 292°
2026-05-05 17:46 44.44270 -108.11972 29994 ft 418 kts 292°
2026-05-05 17:46 44.46248 -108.19673 29985 ft 420 kts 292°
2026-05-05 17:47 44.48199 -108.27291 30002 ft 420 kts 292°
2026-05-05 17:47 44.50174 -108.35023 29980 ft 421 kts 292°
2026-05-05 17:48 44.52122 -108.42680 29987 ft 418 kts 293°
2026-05-05 17:48 44.54070 -108.50362 29985 ft 420 kts 293°
2026-05-05 17:49 44.56015 -108.58064 29972 ft 420 kts 294°
2026-05-05 17:49 44.57946 -108.65726 29968 ft 419 kts 293°
2026-05-05 17:50 44.59883 -108.73440 29976 ft 419 kts 293°
2026-05-05 17:50 44.61818 -108.81169 29983 ft 421 kts 293°
2026-05-05 17:51 44.63757 -108.88942 29978 ft 423 kts 293°
2026-05-05 17:51 44.65691 -108.96731 29975 ft 424 kts 294°
2026-05-05 17:52 44.67617 -109.04501 29977 ft 426 kts 294°
2026-05-05 17:52 44.69552 -109.12342 29956 ft 423 kts 295°
2026-05-05 17:53 44.71470 -109.20142 29950 ft 419 kts 295°
2026-05-05 17:53 44.73362 -109.27852 29978 ft 420 kts 295°
2026-05-05 17:54 44.75250 -109.35591 29948 ft 420 kts 296°
2026-05-05 17:54 44.77141 -109.43348 29912 ft 420 kts 296°
2026-05-05 17:55 44.79009 -109.51047 29916 ft 418 kts 297°
2026-05-05 17:55 44.80869 -109.58742 29882 ft 415 kts 297°
2026-05-05 17:56 44.82727 -109.66450 29859 ft 415 kts 296°
2026-05-05 17:56 44.84578 -109.74156 29863 ft 418 kts 296°
2026-05-05 17:57 44.86418 -109.81844 29864 ft 413 kts 296°
2026-05-05 17:57 44.88239 -109.89482 29907 ft 413 kts 297°
2026-05-05 17:58 44.90076 -109.97203 29921 ft 414 kts 298°
2026-05-05 17:58 44.91901 -110.04909 29920 ft 416 kts 298°
2026-05-05 17:59 44.93724 -110.12627 29927 ft 414 kts 299°
2026-05-05 17:59 44.95569 -110.20287 29899 ft 411 kts 300°
2026-05-05 18:00 44.97422 -110.27941 29875 ft 411 kts 299°
2026-05-05 18:00 44.99276 -110.35624 29861 ft 416 kts 299°
2026-05-05 18:00 45.00209 -110.39487 29444 ft 420 kts 299°
2026-05-05 18:01 45.01146 -110.43382 29090 ft 420 kts 298°
2026-05-05 18:01 45.02061 -110.47228 28712 ft 408 kts 298°
2026-05-05 18:01 45.02953 -110.50967 28284 ft 395 kts 298°
2026-05-05 18:01 45.03817 -110.54589 27866 ft 389 kts 299°
2026-05-05 18:02 45.04691 -110.58215 27470 ft 395 kts 298°
2026-05-05 18:02 45.05580 -110.61935 27070 ft 395 kts 298°
2026-05-05 18:02 45.06444 -110.65582 26670 ft 390 kts 298°
2026-05-05 18:02 45.07304 -110.69194 26279 ft 389 kts 297°
2026-05-05 18:03 45.08155 -110.72781 25888 ft 384 kts 297°
2026-05-05 18:03 45.08998 -110.76347 25479 ft 383 kts 297°
2026-05-05 18:03 45.09851 -110.79944 25081 ft 386 kts 297°
2026-05-05 18:03 45.10704 -110.83553 24715 ft 385 kts 297°
2026-05-05 18:04 45.11541 -110.87116 24337 ft 378 kts 297°
2026-05-05 18:04 45.12358 -110.90579 23911 ft 374 kts 298°
2026-05-05 18:04 45.13419 -110.93893 23466 ft 364 kts 307°
2026-05-05 18:04 45.14883 -110.96731 23063 ft 351 kts 317°
2026-05-05 18:05 45.16586 -110.99153 22714 ft 346 kts 320°
2026-05-05 18:05 45.18303 -111.01539 22365 ft 351 kts 320°
2026-05-05 18:05 45.20074 -111.03970 22009 ft 353 kts 319°
2026-05-05 18:05 45.21830 -111.06374 21644 ft 349 kts 320°
2026-05-05 18:06 45.23569 -111.08740 21276 ft 346 kts 319°
2026-05-05 18:06 45.24714 -111.10295 21035 ft 344 kts 319°
2026-05-05 18:06 45.27017 -111.13424 20571 ft 344 kts 318°
2026-05-05 18:06 45.28733 -111.15749 20219 ft 342 kts 319°
2026-05-05 18:07 45.30441 -111.18067 19886 ft 342 kts 318°
2026-05-05 18:07 45.32153 -111.20392 19526 ft 341 kts 319°
2026-05-05 18:07 45.33879 -111.22736 19173 ft 340 kts 319°
2026-05-05 18:07 45.35575 -111.25038 18828 ft 339 kts 317°
2026-05-05 18:08 45.37268 -111.27342 18481 ft 337 kts 317°
2026-05-05 18:08 45.38948 -111.29627 18133 ft 338 kts 317°
2026-05-05 18:08 45.40653 -111.31953 17770 ft 337 kts 317°
2026-05-05 18:08 45.42339 -111.34252 17423 ft 337 kts 317°
2026-05-05 18:09 45.44020 -111.36547 17075 ft 338 kts 318°
2026-05-05 18:09 45.45721 -111.38864 16987 ft 333 kts 317°
2026-05-05 18:09 45.47395 -111.41142 17000 ft 336 kts 318°
2026-05-05 18:09 45.49093 -111.43455 16991 ft 340 kts 318°
2026-05-05 18:10 45.50800 -111.45779 16995 ft 337 kts 318°
2026-05-05 18:10 45.52498 -111.48095 16996 ft 335 kts 319°
2026-05-05 18:10 45.54175 -111.50380 17004 ft 338 kts 318°
2026-05-05 18:10 45.55888 -111.52715 16988 ft 339 kts 318°
2026-05-05 18:11 45.57569 -111.55008 16356 ft 332 kts 318°
2026-05-05 18:11 45.59223 -111.57264 14775 ft 335 kts 318°
2026-05-05 18:11 45.60840 -111.59471 13864 ft 322 kts 318°
2026-05-05 18:11 45.62434 -111.61648 12831 ft 315 kts 318°
2026-05-05 18:12 45.63986 -111.63769 11813 ft 310 kts 319°
2026-05-05 18:12 45.65680 -111.65572 10816 ft 303 kts 335°
2026-05-05 18:12 45.67652 -111.66470 9846 ft 298 kts 354°
2026-05-05 18:12 45.69686 -111.66366 8870 ft 295 kts 13°
2026-05-05 18:13 45.71534 -111.65301 7923 ft 293 kts 32°
2026-05-05 18:13 45.72977 -111.63325 7497 ft 272 kts 59°
2026-05-05 18:13 45.73533 -111.60927 7792 ft 256 kts 79°
2026-05-05 18:13 45.73757 -111.58302 7783 ft 273 kts 78°
2026-05-05 18:14 45.74189 -111.55691 7756 ft 263 kts 67°
2026-05-05 18:14 45.74888 -111.53328 7758 ft 257 kts 61°
2026-05-05 18:14 45.75738 -111.51080 7766 ft 260 kts 60°
2026-05-05 18:14 45.76544 -111.48718 7743 ft 263 kts 61°
2026-05-05 18:15 45.77376 -111.46400 7687 ft 262 kts 59°
2026-05-05 18:15 45.78236 -111.44126 7631 ft 260 kts 59°
2026-05-05 18:15 45.79124 -111.41840 7447 ft 264 kts 58°
2026-05-05 18:15 45.80035 -111.39536 6979 ft 270 kts 58°
2026-05-05 18:16 45.80966 -111.37199 6688 ft 265 kts 58°
2026-05-05 18:16 45.81843 -111.35002 6663 ft 251 kts 58°
2026-05-05 18:16 45.82696 -111.32870 6665 ft 236 kts 58°
2026-05-05 18:16 45.83491 -111.30888 6666 ft 223 kts 58°
2026-05-05 18:17 45.84259 -111.29009 6585 ft 225 kts 62°
2026-05-05 18:17 45.84681 -111.26805 6331 ft 233 kts 85°
2026-05-05 18:17 45.84491 -111.24558 6057 ft 224 kts 104°
2026-05-05 18:17 45.83631 -111.22716 5832 ft 231 kts 140°
2026-05-05 18:18 45.82298 -111.21395 5470 ft 228 kts 140°
2026-05-05 18:18 45.81197 -111.19951 5165 ft 206 kts 133°
2026-05-05 18:18 45.80229 -111.18619 5020 ft 175 kts 135°
2026-05-05 18:18 45.79417 -111.17511 4820 ft 156 kts 133°
2026-05-05 18:19 45.78664 -111.16450 4501 ft 146 kts 134°
2026-05-05 18:19 45.77998 -111.15517 4484 ft 116 kts 137°
2026-05-05 18:19 45.77545 -111.14893 4484 ft 70 kts 135°
2026-05-05 18:19 45.77313 -111.14573 4484 ft 25 kts 135°
2026-05-05 18:20 45.77193 -111.14404 4483 ft 23 kts 137°
2026-05-05 18:20 45.77078 -111.14253 4484 ft 20 kts 151°
2026-05-05 18:20 45.76977 -111.14304 4484 ft 18 kts 223°
2026-05-05 18:20 45.76925 -111.14434 4483 ft 10 kts 292°
2026-05-05 18:21 45.76982 -111.14523 4483 ft 17 kts 316°
2026-05-05 18:21 45.77093 -111.14675 4483 ft 23 kts 316°
2026-05-05 18:21 45.77207 -111.14834 4484 ft 21 kts 314°
2026-05-05 18:21 45.77312 -111.14981 4484 ft 20 kts 317°
2026-05-05 18:22 45.77409 -111.15114 4484 ft 18 kts 315°
2026-05-05 18:22 45.77499 -111.15240 4484 ft 17 kts 316°
2026-05-05 18:22 45.77582 -111.15354 4484 ft 15 kts 316°
2026-05-05 18:22 45.77658 -111.15459 4484 ft 14 kts 316°
2026-05-05 18:23 45.77731 -111.15561 4484 ft 15 kts 315°
2026-05-05 18:23 45.77821 -111.15685 4484 ft 19 kts 316°
2026-05-05 18:23 45.77915 -111.15816 4484 ft 17 kts 315°
2026-05-05 18:23 45.77938 -111.15859 4484 ft 3 kts 289°
2026-05-05 18:24 45.77940 -111.15890 4484 ft 2 kts 256°
2026-05-05 18:24 45.77927 -111.15916 4484 ft 2 kts 234°
2026-05-05 18:24 45.77918 -111.15946 4484 ft 5 kts 259°
2026-05-05 18:24 45.77919 -111.15963 4484 ft 5 kts 277°
2026-05-05 18:25 45.77919 -111.15978 4484 ft 0 kts 264°
2026-05-05 18:25 45.77919 -111.15981 4484 ft 2 kts 258°
2026-05-05 18:25 45.77908 -111.16004 4484 ft 10 kts 231°
2026-05-05 18:25 45.77890 -111.16030 4484 ft 0 kts 221°
2026-05-05 18:26 45.77883 -111.16039 4484 ft 0 kts 219°
2026-05-05 18:26 45.77881 -111.16040 4484 ft 0 kts 221°
2026-05-05 18:26 45.77880 -111.16042 4484 ft 0 kts 225°